Location: Gro�wechsungen
(51.4926°N, 10.6901°E)
Time: 08:46:51
(UTC+00:00)

SPOT 3 Rocket - Pass Details

Date: 04 February 2021
Orbit: 780 x 794 km, 98.7° (Epoch: 24 February)

Event Time Altitude Azimuth Distance (km) Brightness Sun altitude
Exits shadow 19:09:20 27° 8° (N) 1,467 4.9 -27.6°
Drops below altitude 10° 19:11:50 10° 354° (N) 2,356 6.2 -28.0°
Sets 19:14:14 0° 349° (NNW) 3,291 7.0 -28.4°
